#timestamp,LO_Frequency,Hit,StdDev 
1650337215.3,286047002.8,N
1650337235.1,286046999.7,N
1650337255.9,286047001.4,N
1650337275.7,286047001.4,N
1650337295.5,286047002.8,N
1650337315.4,286046999.7,N
1650337335.2,286047001.0,N
1650337355.1,286047000.4,N
1650337356.0,286047000.4,N
1650337375.8,286047000.1,N
1650337395.6,286047002.1,N
1650337415.5,286047002.2,N
1650337435.3,286047002.5,N
1650337455.1,286047001.9,N
1650337475.9,286047005.4,Y
1650337495.7,286047001.7,P
1650337515.6,286047002.7,P
1650337535.4,286047001.4,N
1650337555.2,286047002.3,Y
1650337575.1,286047000.8,P
1650337576.0,286047000.8,N
1650337595.8,286047001.1,N
1650337615.7,286046998.9,N
1650337635.5,286046999.6,N
1650337655.3,286047000.1,N
1650337675.2,286047000.9,N
1650337695.0,286047000.2,N
1650337695.9,286047000.2,N
1650337715.7,286046998.9,N
1650337735.6,286046997.1,Y
1650337755.4,286046999.6,P
1650337775.3,286046997.8,P
1650337795.1,286046997.4,N
1650337815.8,286046997.5,N
1650337835.7,286046997.4,N
1650337855.5,286046996.8,N
1650337875.4,286046998.8,N
1650337895.2,286047001.0,N
1650337915.0,286046998.6,N
1650337915.9,286046998.6,N
1650337935.8,286046998.4,N
1650337955.6,286046999.8,N
1650337975.4,286046999.7,N
1650337995.3,286047001.0,N
1650338015.1,286046998.8,N
1650338035.9,286047000.2,N
1650338055.7,286047001.9,N
1650338075.5,286047002.4,N
1650338095.4,286046998.5,N
1650338115.2,286046999.0,N
1650338135.1,286046999.0,N
1650338136.0,286046999.0,N
1650338155.8,286046999.8,N
1650338175.6,286047000.2,N
1650338195.5,286047000.9,N
1650338215.3,286046998.7,N
1650338235.1,286046996.5,N
1650338255.9,286046999.2,N
1650338275.7,286046999.5,N
1650338295.6,286046996.8,N
1650338315.4,286046997.5,N
1650338335.2,286046997.2,N
1650338355.1,286046997.1,N
1650338356.0,286046997.1,N
1650338375.8,286046995.1,Y
1650338395.7,286046995.3,P
1650338415.5,286046997.3,N
1650338435.3,286046995.0,P
1650338455.2,286046995.4,N
1650338475.0,286046995.7,N
1650338475.9,286046995.7,Y
1650338495.8,286046996.7,P
1650338515.6,286046996.7,P
1650338535.4,286046996.7,P
1650338555.3,286046997.9,Y
1650338575.1,286046998.4,P
1650338595.8,286046999.1,N
1650338615.7,286046996.7,P
1650338635.5,286046996.5,Y
1650338655.4,286046998.5,P
1650338675.2,286046999.0,N
1650338695.0,286046998.6,N
1650338695.9,286046998.6,Y
1650338715.8,286047000.3,P
1650338735.6,286046999.7,N
1650338755.5,286047001.0,N
1650338775.3,286046998.5,N
1650338795.1,286046999.8,N
1650338815.9,286047001.7,N
1650338835.7,286047002.1,N
1650338855.5,286047002.5,N
1650338875.4,286047002.7,N
1650338895.2,286046999.9,N
1650338915.1,286047001.2,N
1650338916.0,286047001.2,N
1650338935.8,286047001.0,N
1650338955.6,286047002.4,N
1650338975.5,286047002.7,N
1650338995.3,286047001.9,N
1650339015.1,286047000.2,N
1650339035.9,286047002.7,N
1650339055.7,286047002.4,N
1650339075.6,286047001.8,N
1650339095.4,286046999.7,N
1650339115.2,286047000.4,N
1650339135.1,286047001.2,N
1650339136.0,286047001.2,N
1650339155.8,286047000.9,N
1650339175.6,286047000.4,N
1650339195.5,286046998.2,N
1650339215.3,286047001.0,N
1650339235.2,286047001.0,N
1650339255.9,286046999.3,N
1650339275.7,286046999.5,N
1650339295.6,286046998.6,N
1650339315.4,286046999.8,N
1650339335.2,286047002.5,N
1650339355.1,286047000.9,N
1650339356.0,286047000.9,N
1650339375.8,286046999.3,N
1650339395.7,286046998.6,N
1650339415.5,286046998.5,N
1650339435.3,286046998.1,N
1650339455.2,286046998.3,N
1650339475.0,286046998.7,N
1650339475.9,286046998.7,N
1650339495.8,286046999.0,N
1650339515.6,286046998.8,N
1650339535.4,286046996.9,N
1650339555.3,286047001.2,N
1650339575.1,286047001.0,N
1650339595.9,286046999.4,N
1650339615.7,286046998.3,N
1650339635.5,286046998.3,N
1650339655.4,286046998.3,N
1650339675.2,286046998.2,N
1650339695.0,286047001.2,N
1650339695.9,286047001.2,N
1650339715.8,286046996.9,N
1650339735.6,286046996.5,N
1650339755.5,286046999.1,N
1650339775.3,286046998.9,N
1650339795.1,286046999.6,N
1650339815.9,286046996.7,N
1650339835.7,286046997.4,N
1650339855.6,286046996.2,N
1650339875.4,286046996.0,N
1650339895.2,286046995.6,N
1650339915.1,286046997.6,N
1650339916.0,286046997.6,N
1650339935.8,286046998.0,N
1650339955.7,286046997.6,N
1650339975.5,286046995.1,Y
1650339995.3,286046996.7,P
1650340015.2,286046999.5,N
1650340035.0,286046996.9,N
1650340035.9,286046996.9,N
1650340055.8,286046995.4,Y
1650340075.6,286046998.8,P
1650340095.4,286047000.1,N
1650340115.3,286047000.9,N
1650340135.1,286046998.8,N
1650340155.9,286046997.5,N
1650340175.7,286046996.8,N
1650340195.5,286046999.2,N
1650340215.4,286046998.7,N
1650340235.2,286047000.3,N
1650340255.0,286047000.0,N
1650340255.9,286047000.0,N
1650340275.8,286047000.4,N
1650340295.6,286046998.6,N
1650340315.5,286046998.7,N
1650340335.3,286047001.2,N
1650340355.1,286047001.2,N
1650340375.9,286046998.5,N
1650340395.7,286046998.5,N
1650340415.6,286046998.1,N
1650340435.4,286046996.5,N
1650340455.2,286046999.2,N
1650340475.1,286046998.5,N
1650340476.0,286046998.5,N
1650340495.8,286046999.5,N
1650340515.6,286046999.0,N
1650340535.5,286046996.5,N
1650340555.3,286046999.2,N
1650340575.2,286046999.3,N
1650340595.9,286047000.7,N
1650340615.7,286046998.5,N
1650340635.6,286046998.3,N
1650340655.4,286047000.8,N
1650340675.2,286046998.2,N
1650340695.1,286046998.4,N
1650340696.0,286046998.4,N
1650340715.8,286046999.0,N
1650340735.7,286046999.5,N
1650340755.5,286046997.4,N
1650340775.3,286046996.9,N
1650340795.2,286046997.4,N
